Plymouth Peak Pro Challenge - 40 Mile Trainer

Station: Trainer 40 Miles - T Race

Distance: 40 Miles    

Release: 13-Sep-2021 08:00

Weather Release:    Arrival:

Wind at Release:     Wind at Arrival:

Temp at Release: °    Temp at Arrival: °

Lofts: 96

Birds: 243

Clocked: 243

Lots of Birds Stayed Out Loft Flying Today Upon Returning
Drops Pos Breeder Pigeon Name Color Sex Ent Arrival Speed To Win Elg PdAOC3PC 2ndPed
1 Pleasant Task Farm - PA 0343-AU21-PTF 13900 x 13829 BB C 1 08:38:14.50 1840.924 00:00:00 Yes
2 Norman Benoit - KS 2467-AU21-TEXA BB C 1 08:38:16.00 1839.721 00:00:02 Yes
3 Baldwin & Tillson - NC 1128-AU21-TENT ALASFAR-8224(348) BB H 1 08:38:18.40 1837.800 00:00:04 Yes
4 Rocky Mountain Racing - UT 21310-AU21-RMR BB C 1 08:38:25.10 1832.458 00:00:11 Yes
5 Big Game Loft - CA 0952-AU21-EAV BBSP H 1 08:38:30.50 1828.176 00:00:16 Yes
6 M D C Loft - OR 1272-AU21-MDC BB 0 1 08:38:31.10 1827.701 00:00:17 Yes
7 Tim Thompson - CA 0519-AU21-TOP KAWAMURA BC H 1 08:38:41.90 1819.200 00:00:27 Yes
8 High West Loft - UT 0753-AU21-UVI BC C 1 08:38:42.50 1818.730 00:00:28 Yes
9 Sierra Ranch - CA 1042-AU21-AUB SR 1755 x SR 1514 BBSP C 1 08:38:45.80 1816.149 00:00:31 Yes
10 Bieche Lofts - CA 1015-AU21-BECH BB H 1 08:38:47.00 1815.213 00:00:32 Yes
11 Sierra Ranch - CA 1075-AU21-AUB SR 954 x SR 2005 BB H 2 08:38:48.90 1813.732 00:00:34 Yes
12 Callahan Loft - MO 0259-AU21-AA GRIZ C 1 08:38:49.00 1813.654 00:00:34 Yes
13 Skylinerpl.Com - UT 0226-AU21-UVI Troy Bro/88 BC C 1 08:38:52.10 1811.243 00:00:38 Yes
14 VicstromLoft - UT 2130-AU21-WICK WICK 2130 BB H 1 08:38:52.70 1810.777 00:00:38 Yes
15 Dennis Martinen - WA 0225-AU21-YAK BB H 1 08:38:53.20 1810.389 00:00:39 Yes
16 America's Dream Loft - IL 0500-AU21-ADL BC H 1 08:38:53.90 1809.846 00:00:39 Yes
17 Brook Loft - NC 15934-AU21-FOYS BB C 1 08:38:57.50 1807.059 00:00:43 Yes
18 Ron Pairan - OH 0009-AU21-LFO BB C 1 08:38:59.60 1805.437 00:00:45 Yes
19 Dave Harrett - WA 1068-AU21-JEDD BC H 1 08:39:00.20 1804.974 00:00:46 Yes
20 Griffin Loft - ID 21504-AU21-RMR BB H 1 08:39:01.00 1804.357 00:00:47 Yes
21 Kastle Loft - KY 2167-AU21-KAST Kastle Flora BC H 1 08:39:03.70 1802.278 00:00:49 Yes
22 1776 Loft 3 - PA 71341-AU21-ARPU BBPD H 1 08:39:06.10 1800.435 00:00:52 Yes
23 Goldstar Lofts Of Illinois - IL 9148-AU21-STAR BB C 1 08:39:06.60 1800.051 00:00:52 Yes
24 Evolution One Loft - UT 3519-AU21-OGN BCWF H 1 08:39:07.70 1799.208 00:00:53 Yes
25 Racing Pigeon Digest - MT 0036-AU21-DIGE BB H 1 08:39:11.60 1796.224 00:00:57 Yes
26 Racing Pigeon Digest - MT 0089-AU21-DIGE BB H 2 08:39:13.70 1794.621 00:00:59 Yes
27 Jomo - CA 41323-AU21-ARPU BB H 1 08:39:15.20 1793.478 00:01:01 Yes
28 Brook Loft - NC 15944-AU21-FOYS BB H 2 08:39:16.20 1792.717 00:01:02 Yes
29 Pigeon Palace - LA 0676-AU21-LAF BB C 1 08:39:18.10 1791.273 00:01:04 Yes
30 Dennis Martinen - WA 0224-AU21-YAK BC C 2 08:39:21.80 1788.466 00:01:07 Yes
31 Pigeon Palace - LA 0679-AU21-LAF BB H 2 08:39:24.60 1786.349 00:01:10 Yes
32 Redtex - TX 0345-AU21-RDTX pied piper BBPD H 1 08:39:25.40 1785.744 00:01:11 Yes
33 Larry And Larry Syndicate - UT 1051-AU21-WFA BB C 1 08:39:27.10 1784.462 00:01:13 Yes
34 Brown & Evans - TX 0487-AU21-WF BB H 1 08:39:27.70 1784.010 00:01:13 Yes
35 Nanez Family Loft - WI 1190-AU21-NZFL BLK H 1 08:39:28.30 1783.558 00:01:14 Yes
36 Bryan Maier - PA 0524-IF21-MAIE GRIZ H 1 08:39:30.40 1781.978 00:01:16 Yes
37 Wolfs Den - IL 0523-AU21-VITA BB H 1 08:39:31.30 1781.301 00:01:17 Yes
38 M2 Loft - UT 0814-AU21-UVI BBSP H 1 08:39:31.60 1781.076 00:01:17 Yes
39 A P C Loft - TX 0029-AU21-APCL BB H 1 08:39:32.10 1780.701 00:01:18 Yes
40 Dennis Martinen - WA 0234-AU21-YAK BB C 3 08:39:32.40 1780.475 00:01:18 Yes
41 Nebo Loft - UT 0025-AU21-NEBO Who was #132 BB H 1 08:39:33.70 1779.500 00:01:19 Yes
42 Gold Star Loft - FL 1802-AU21-STON RC C 1 08:39:35.80 1777.927 00:01:21 Yes
43 Pleasant Task Farm - PA 0332-AU21-PTF LIN2163xKOL1340 BC H 2 08:39:39.00 1775.536 00:01:24 Yes
44 Genesis Syndicate Loft - AZ 0153-AU21-GENE BC C 1 08:39:39.60 1775.088 00:01:25 Yes
45 R & D Racing 2 - ON 19270-AU21-ARPU RC C 1 08:39:40.20 1774.641 00:01:26 Yes
46 High West Loft - UT 0748-AU21-UVI BCTC H 2 08:39:48.90 1768.178 00:01:34 Yes
47 A P C Loft - TX 0015-AU21-APCL BCWF C 2 08:39:49.20 1767.956 00:01:35 Yes
48 Rueter Family Loft - OR 0858-AU21-CORP BB H 1 08:39:50.40 1767.068 00:01:36 Yes
49 Ron Pairan - OH 0012-AU21-LFO GRIZ C 2 08:39:50.80 1766.773 00:01:36 Yes
50 Pigeon Palace - LA 0699-AU21-LAF BBWF H 3 08:39:51.70 1766.108 00:01:37 Yes
51 New Era Loft - PA 21038-AU21-NEL BB H 1 08:39:53.90 1764.485 00:01:39 Yes
52 Silicon Valley Syndicate - CA 21083-AU21-SVS BBPN C 1 08:39:54.40 1764.116 00:01:40 Yes
53 Sherwood Loft - UT 0903-IF21-E BB H 1 08:39:55.00 1763.674 00:01:41 Yes
54 Cousin Vinny - VA 2010-IF21-SEA BBTC C 1 08:39:57.70 1761.688 00:01:43 Yes
55 Van Den Bossche Brothers - ME 1222-IF21-CMP Cloud Buster BB H 1 08:39:59.00 1760.734 00:01:44 Yes
56 Rory Smith - UT 1418-AU21-CDR Foxy 2 11988x1031 BBSP H 1 08:40:00.00 1760.000 00:01:46 Yes
57 VicstromLoft - UT 2129-AU21-WICK WICK 2129 BBSP H 2 08:40:00.80 1759.414 00:01:46 Yes
58 Nebo Loft - UT 0224-AU21-NEBO Underpass Princess BBWF H 2 08:40:03.00 1757.803 00:01:48 Yes
58 Da-Dong - WI 0673-AU21-RAC 997-831 BBWF H 1 08:40:03.00 1757.803 00:01:48 Yes
60 Cousin Vinny - VA 2028-IF21-SEA BBWF C 2 08:40:03.90 1757.145 00:01:49 Yes
61 Skylinerpl.Com - UT 0205-AU21-UVI Beaver Boy/Checkers BC H 2 08:40:04.80 1756.487 00:01:50 Yes
62 Texas Holiday Derby - TX 1061-AU21-NSL Marc 90737 X 600 BB H 1 08:40:05.90 1755.684 00:01:51 Yes
63 M2 Loft - UT 1044-AU21-UVI BBTC H 2 08:40:12.70 1750.736 00:01:58 Yes
64 America's Dream Loft - IL 1231-AU21-RRV BC C 2 08:40:13.70 1750.010 00:01:59 Yes
65 Racing Pigeon Mall - WA 0105-AU21-RPM BB C 1 08:40:16.10 1748.272 00:02:02 Yes
66 Rory Smith - UT 1409-AU21-CDR Tiny Zwx15109 BBWF H 2 08:40:17.40 1747.332 00:02:03 Yes
67 Gold Star Loft - FL 1811-AU21-STON BB C 2 08:40:19.00 1746.176 00:02:05 Yes
68 Whiteley Loft - UT 1258-AU21-UVI BB C 1 08:40:20.90 1744.806 00:02:06 Yes
69 Allredfamilypigeonloft - UT 0096-AU21-AFPL BC C 1 08:40:21.80 1744.157 00:02:07 Yes
70 Wessel Family Lofts - CA 5213-AU21-ARC BB H 1 08:40:24.30 1742.359 00:02:10 Yes
71 Fl Lin - FL 84078-AU21-ARPU BBSP H 1 08:40:30.10 1738.200 00:02:16 Yes
72 Da-Dong - WI 0619-AU21-RAC 129-519 BC H 2 08:40:37.70 1732.781 00:02:23 Yes
73 New Era Loft - PA 21030-AU21-NEL BB H 2 08:41:00.10 1717.003 00:02:46 Yes
74 D G F Loft - UT 0026-AU21-UVI 04/2nines BB H 1 08:41:01.30 1716.166 00:02:47 Yes
75 Capistrano Loft - FL 0122-AU21-CAPL MAHARLIKA BC C 1 08:41:03.40 1714.703 00:02:49 Yes
76 Genesis Syndicate Loft - AZ 0129-AU21-GENE DCWF C 2 08:41:06.40 1712.618 00:02:52 Yes
77 Fl Lin - FL 84095-AU21-ARPU BB H 2 08:41:13.10 1707.978 00:02:59 Yes
78 Broster Family Loft - CA 20915-AU21-JEDD BRZC H 1 08:41:13.70 1707.564 00:02:59 Yes
79 Richard Gale - UT 1302-AU21-CDR BBSP C 1 08:41:14.10 1707.287 00:03:00 Yes
80 Dave Conover - PA 3129-IF21-PHX (FR) 482057-366 (GEN) BB H 1 08:41:16.70 1705.495 00:03:02 Yes
81 Larry And Larry Syndicate - UT 1055-AU21-WFA BC H 2 08:41:19.10 1703.844 00:03:05 Yes
82 Murray & Porter - WI 0002-AU21-RRR BC H 1 08:41:36.20 1692.172 00:03:22 Yes
83 The Chosen Few - MI 83107-AU21-ARPU 23 x 1141 BBPN C 1 08:41:41.20 1688.789 00:03:27 Yes
84 Sierra Ranch - CA 1083-AU21-AUB BB H 3 08:41:46.20 1685.420 00:03:32 Yes
85 Spring Break Race - UT 34489-AU21-AA BCTC C 1 08:42:05.80 1672.341 00:03:51 Yes
86 V & G Loft - UT 1761-AU21-HARM Trishell BC H 1 08:42:08.70 1670.424 00:03:54 Yes
87 Crooked River Challenge - OR 0427-AU21-CORP BB C 1 08:42:22.50 1661.357 00:04:08 Yes
88 Murray & Porter - WI 0057-AU21-RRR BBPN H 2 08:42:27.90 1657.836 00:04:13 Yes
89 Rocky Mountain Racing - UT 21116-AU21-RMR BBSP H 2 08:42:44.30 1647.233 00:04:30 Yes
90 Da-Dong - WI 0618-AU21-RAC 129-519 BB H 3 08:43:03.40 1635.055 00:04:49 Yes
91 Wolfs Den - IL 0575-AU21-VITA BC H 2 08:43:18.80 1625.366 00:05:04 Yes
92 Allredfamilypigeonloft - UT 0071-AU21-AFPL BB H 2 08:43:26.30 1620.688 00:05:12 Yes
93 Callahan Loft - MO 0271-AU21-AA BBPN C 2 08:43:54.70 1603.219 00:05:40 Yes
94 Capistrano Loft - FL 0138-AU21-CAPL DALAGA BB H 2 08:43:56.00 1602.428 00:05:41 Yes
95 Armando Soto Loft - MH 74253-MX21-FMC BC H 1 08:43:59.00 1600.606 00:05:45 Yes
96 Crazy Als Lofts - CO 5903-AU21-CRAZ BB H 1 08:43:59.50 1600.303 00:05:45 Yes
97 Columba Loft - GA 1144-AU21-LYNC Ace II BB H 1 08:44:01.70 1598.970 00:05:47 Yes
98 Capistrano Loft - FL 0111-AU21-CAPL ANINA BCWF H 3 08:44:18.80 1588.687 00:06:04 Yes
99 Genesis Syndicate Loft - AZ 0170-AU21-GENE BBSP H 3 08:44:39.10 1576.649 00:06:25 Yes
100 Christopher Loft - UT 0044-AU21-GS BBSP H 1 08:44:58.70 1565.198 00:06:44 Yes

There are 243 bird records

Note: These Race Results are unofficial and subject to change until verified by the Race Committee and declared final.